Rolla, MO

3:03 AM CDT on August 24, 2019 (GMT -0500)
Rolla National

Weather History for KVIH - July, 2019

Change the Weather History Date:

Sunday, July 21, 2019

  Actual Average Record
Temperature  
Mean Temperature 80 °F 78 °F  
Max Temperature 90 °F 89 °F 105 °F (1901)
Min Temperature 70 °F 67 °F 52 °F (1970)
Degree Days  
Heating Degree Days 0 0  
Month to date heating degree days 0 0  
Since 1 June heating degree days 12 14  
Since 1 July heating degree days 0 0  
Cooling Degree Days 15 13  
Month to date cooling degree days 260 254  
Year to date cooling degree days 622 596  
Since 1 June cooling degree days 471 489  
Growing Degree Days 30 (Base 50)    
Moisture  
Dew Point 70 °F    
Average Humidity 75    
Maximum Humidity 97    
Minimum Humidity 52    
Precipitation  
Precipitation 0.09 in 0.15 in 2.54 in (1996)
Month to date precipitation 1.63 3.04  
Year to date precipitation 24.67 24.48  
Sea Level Pressure  
Sea Level Pressure 29.93 in    
Wind  
Wind Speed 6 mph (North)    
Max Wind Speed 16 mph    
Max Gust Speed 21 mph    
Visibility 10 miles    
Events Rain    
T = Trace of Precipitation, MM = Missing Value Source: NWS Daily Summary

Daily Weather History Graph

Daily Weather History Graph

Search for Another Location

Airport or City:

Astronomy

Jul. 21, 2019 Rise Set
Actual Time 6:00 AM CDT 8:26 PM CDT
Civil Twilight 5:30 AM CDT 8:56 PM CDT
Nautical Twilight 4:52 AM CDT 9:33 PM CDT
Astronomical Twilight 4:11 AM CDT 10:14 PM CDT
Moon 11:24 PM CDT (7/21) 10:18 AM CDT (7/21)
Length of Visible Light 15h 25m
Length of Day
14h 25m
Waning Gibbous, 80% of the Moon is Illuminated
Jul 21
Waning Gibbous
Jul 24
Last Quarter
Jul 31
New
Aug 7
First Quarter
Aug 15
Full

Hourly Weather History & Observations

Time (CDT) Temp. Heat Index Dew Point Humidity Pressure Visibility Wind Dir Wind Speed Gust Speed Precip Events Conditions
12:53 AM 79.0 °F - 72.0 °F 79% 29.93 in 10.0 mi WSW 6.9 mph - N/A   Scattered Clouds
1:53 AM 77.0 °F - 70.0 °F 79% 29.95 in 10.0 mi NNW 10.4 mph - N/A   Partly Cloudy
2:53 AM 75.9 °F - 66.9 °F 74% 29.91 in 10.0 mi ENE 3.5 mph - N/A   Clear
3:53 AM 73.0 °F - 66.9 °F 81% 29.91 in 10.0 mi West 6.9 mph - N/A   Clear
4:53 AM 72.0 °F - 68.0 °F 87% 29.92 in 10.0 mi WSW 6.9 mph - N/A   Clear
5:53 AM 70.0 °F - 68.0 °F 93% 29.91 in 10.0 mi WSW 4.6 mph - N/A   Clear
6:53 AM 71.1 °F - 68.0 °F 90% 29.92 in 10.0 mi SSW 6.9 mph - N/A   Clear
7:53 AM 73.0 °F - 69.1 °F 87% 29.94 in 10.0 mi WSW 8.1 mph - N/A   Clear
8:53 AM 77.0 °F - 69.1 °F 76% 29.96 in 10.0 mi NNE 5.8 mph - N/A   Clear
9:53 AM 79.0 °F - 68.0 °F 69% 29.97 in 10.0 mi NE 9.2 mph - N/A   Clear
10:53 AM 84.9 °F 88.8 °F 69.1 °F 59% 29.98 in 10.0 mi NE 5.8 mph - N/A   Clear
11:53 AM 84.9 °F 89.4 °F 70.0 °F 61% 29.97 in 10.0 mi NE 6.9 mph - N/A   Clear
12:53 PM 84.9 °F 89.4 °F 70.0 °F 61% 29.97 in 10.0 mi North 5.8 mph - N/A   Clear
1:53 PM 87.1 °F 92.0 °F 70.0 °F 57% 29.95 in 10.0 mi Calm Calm - N/A   Clear
2:53 PM 88.0 °F 93.8 °F 71.1 °F 57% 29.93 in 10.0 mi SE 3.5 mph - N/A   Clear
3:53 PM 88.0 °F 92.9 °F 70.0 °F 55% 29.91 in 10.0 mi SSE 8.1 mph - N/A   Scattered Clouds
4:53 PM 89.1 °F 94.1 °F 70.0 °F 53% 29.91 in 10.0 mi WSW 4.6 mph - N/A   Partly Cloudy
5:53 PM 90.0 °F 96.4 °F 71.1 °F 54% 29.91 in 10.0 mi WSW 8.1 mph - N/A   Clear
6:53 PM 88.0 °F 92.9 °F 70.0 °F 55% 29.91 in 10.0 mi WSW 3.5 mph - N/A   Clear
7:53 PM 84.0 °F 89.6 °F 72.0 °F 67% 29.90 in 10.0 mi NNE 3.5 mph - N/A   Scattered Clouds
8:53 PM 80.1 °F 84.2 °F 73.0 °F 79% 29.92 in 10.0 mi NE 4.6 mph - N/A   Clear
9:53 PM 79.0 °F - 72.0 °F 79% 29.92 in 10.0 mi NE 6.9 mph - N/A   Clear
10:53 PM 77.0 °F - 71.1 °F 82% 29.92 in 10.0 mi NE 5.8 mph - 0.00 in Rain Light Rain
11:53 PM 75.9 °F - 71.1 °F 85% 29.93 in 10.0 mi North 5.8 mph - 0.00 in Rain Light Rain